VIR1H EGLL-KEWR

Flight info

Callsign VIR1H
Flight time N/A
Altitude 36000
Route CPT L9 BUCGO DCT FELCA DCT OFSOX DCT SLANY DCT LUNIG DCT LUPOR DCT MALOT/M081F380 DCT 53N020W 53N030W 53N040W 51N050W DCT ALLRY/N0472F380 N468A TUSKY Q475 COPLY DCT BOS DCT NELIE FLOSI4
Aircraft A346/H-SDE2E3FGHIJ3J4J5M1RWXY/LB1D1

Departure

Time N/A
Airport London Heathrow Airport (EGLL)

Arrival

Time 2026-04-21 01:59
Airport Newark Liberty International Airport (KEWR)
Time Latitude Longitude Altitude Speed Heading
2026-04-21 00:09 46.85190 -60.88666 36197 ft 384 kts 228°
2026-04-21 00:10 46.82114 -60.95047 36209 ft 383 kts 228°
2026-04-21 00:10 46.79038 -61.01414 36201 ft 383 kts 228°
2026-04-21 00:11 46.75960 -61.07769 36200 ft 383 kts 228°
2026-04-21 00:11 46.72874 -61.14125 36193 ft 383 kts 228°
2026-04-21 00:12 46.69810 -61.20423 36197 ft 383 kts 228°
2026-04-21 00:12 46.66716 -61.26767 36192 ft 383 kts 228°
2026-04-21 00:13 46.63616 -61.33109 36212 ft 385 kts 228°
2026-04-21 00:13 46.60494 -61.39481 36195 ft 386 kts 228°
2026-04-21 00:14 46.57369 -61.45846 36192 ft 386 kts 227°
2026-04-21 00:14 46.54237 -61.52209 36192 ft 386 kts 227°
2026-04-21 00:15 46.51102 -61.58566 36195 ft 387 kts 227°
2026-04-21 00:15 46.47935 -61.64971 36194 ft 387 kts 227°
2026-04-21 00:16 46.44784 -61.71331 36204 ft 387 kts 227°
2026-04-21 00:16 46.41653 -61.77635 36207 ft 387 kts 227°
2026-04-21 00:17 46.38498 -61.83975 36227 ft 387 kts 227°
2026-04-21 00:17 46.35328 -61.90324 36216 ft 388 kts 227°
2026-04-21 00:18 46.32160 -61.96663 36217 ft 388 kts 227°
2026-04-21 00:18 46.28987 -62.02995 36216 ft 388 kts 227°
2026-04-21 00:19 46.25809 -62.09323 36221 ft 388 kts 227°
2026-04-21 00:19 46.22647 -62.15601 36232 ft 388 kts 227°
2026-04-21 00:20 46.19470 -62.21899 36226 ft 387 kts 227°
2026-04-21 00:20 46.16289 -62.28190 36300 ft 387 kts 227°
2026-04-21 00:21 46.13094 -62.34490 36231 ft 389 kts 227°
2026-04-21 00:21 46.09891 -62.40798 36221 ft 389 kts 227°
2026-04-21 00:22 46.06684 -62.47097 36199 ft 390 kts 227°
2026-04-21 00:22 46.03467 -62.53402 36208 ft 393 kts 227°
2026-04-21 00:23 46.00158 -62.59860 36206 ft 405 kts 228°
2026-04-21 00:23 45.96803 -62.66408 36206 ft 407 kts 228°
2026-04-21 00:24 45.93438 -62.72960 36209 ft 408 kts 228°
2026-04-21 00:24 45.90064 -62.79511 36203 ft 411 kts 228°
2026-04-21 00:25 45.86659 -62.86110 36215 ft 411 kts 228°
2026-04-21 00:25 45.83246 -62.92709 36204 ft 411 kts 228°
2026-04-21 00:26 45.79830 -62.99298 36209 ft 411 kts 227°
2026-04-21 00:26 45.76421 -63.05851 36204 ft 413 kts 228°
2026-04-21 00:27 45.72980 -63.12458 36204 ft 413 kts 228°
2026-04-21 00:27 45.69526 -63.19073 36202 ft 413 kts 228°
2026-04-21 00:28 45.66063 -63.25680 36227 ft 416 kts 228°
2026-04-21 00:28 45.62583 -63.32315 36206 ft 417 kts 228°
2026-04-21 00:29 45.59115 -63.38913 36194 ft 417 kts 228°
2026-04-21 00:29 45.55604 -63.45575 36193 ft 417 kts 228°
2026-04-21 00:30 45.52133 -63.52146 36195 ft 417 kts 228°
2026-04-21 00:30 45.48637 -63.58747 36199 ft 416 kts 228°
2026-04-21 00:31 45.45139 -63.65338 36185 ft 416 kts 228°
2026-04-21 00:31 45.41639 -63.71915 36186 ft 416 kts 228°
2026-04-21 00:32 45.38139 -63.78477 36188 ft 416 kts 228°
2026-04-21 00:32 45.34636 -63.85029 36207 ft 416 kts 228°
2026-04-21 00:33 45.31124 -63.91582 36196 ft 416 kts 228°
2026-04-21 00:33 45.27628 -63.98095 36189 ft 416 kts 228°
2026-04-21 00:34 45.24120 -64.04613 36195 ft 416 kts 228°
2026-04-21 00:34 45.20600 -64.11139 36195 ft 416 kts 228°
2026-04-21 00:35 45.17049 -64.17694 36211 ft 421 kts 228°
2026-04-21 00:35 45.14080 -64.23176 36201 ft 422 kts 228°
2026-04-21 00:36 45.09914 -64.30854 36191 ft 422 kts 228°
2026-04-21 00:36 45.06325 -64.37449 36194 ft 422 kts 228°
2026-04-21 00:37 45.03337 -64.42921 36197 ft 423 kts 228°
2026-04-21 00:37 44.99729 -64.49521 36200 ft 424 kts 228°
2026-04-21 00:38 44.96110 -64.56126 36202 ft 424 kts 228°
2026-04-21 00:38 44.92488 -64.62720 36201 ft 424 kts 228°
2026-04-21 00:39 44.88871 -64.69288 36228 ft 424 kts 228°
2026-04-21 00:39 44.85240 -64.75868 36228 ft 424 kts 228°
2026-04-21 00:40 44.81611 -64.82430 36225 ft 424 kts 228°
2026-04-21 00:40 44.77389 -64.90044 36226 ft 424 kts 228°
2026-04-21 00:41 44.74338 -64.95529 36219 ft 426 kts 228°
2026-04-21 00:41 44.70679 -65.02099 36259 ft 427 kts 228°
2026-04-21 00:42 44.67003 -65.08675 36225 ft 432 kts 229°
2026-04-21 00:42 44.63285 -65.15327 36215 ft 432 kts 229°
2026-04-21 00:43 44.59560 -65.21970 36221 ft 433 kts 229°
2026-04-21 00:43 44.55824 -65.28619 36218 ft 433 kts 229°
2026-04-21 00:44 44.52087 -65.35254 36217 ft 433 kts 229°
2026-04-21 00:44 44.48366 -65.41845 36215 ft 433 kts 229°
2026-04-21 00:45 44.42742 -65.51772 36216 ft 433 kts 229°
2026-04-21 00:45 44.38994 -65.58373 36216 ft 433 kts 229°
2026-04-21 00:46 44.35239 -65.64971 36215 ft 433 kts 229°
2026-04-21 00:46 44.31480 -65.71560 36222 ft 433 kts 229°
2026-04-21 00:47 44.27712 -65.78145 36217 ft 434 kts 229°
2026-04-21 00:47 44.23934 -65.84737 36216 ft 434 kts 229°
2026-04-21 00:48 44.20142 -65.91334 36227 ft 438 kts 229°
2026-04-21 00:48 44.16340 -65.97939 36219 ft 439 kts 229°
2026-04-21 00:49 44.12509 -66.04580 36215 ft 439 kts 229°
2026-04-21 00:49 44.08668 -66.11221 36219 ft 439 kts 229°
2026-04-21 00:50 44.04827 -66.17846 36222 ft 439 kts 229°
2026-04-21 00:50 44.00983 -66.24462 36224 ft 440 kts 229°
2026-04-21 00:51 43.97131 -66.31077 36225 ft 440 kts 229°
2026-04-21 00:51 43.93277 -66.37680 36230 ft 440 kts 229°
2026-04-21 00:52 43.89418 -66.44278 36235 ft 440 kts 229°
2026-04-21 00:52 43.85572 -66.50835 36236 ft 440 kts 229°
2026-04-21 00:53 43.81701 -66.57424 36240 ft 440 kts 229°
2026-04-21 00:53 43.77827 -66.64003 36243 ft 440 kts 229°
2026-04-21 00:54 43.73951 -66.70572 36279 ft 441 kts 229°
2026-04-21 00:54 43.70036 -66.77192 36258 ft 445 kts 229°
2026-04-21 00:55 43.66114 -66.83815 36256 ft 445 kts 229°
2026-04-21 00:55 43.62225 -66.90422 36254 ft 446 kts 230°
2026-04-21 00:56 43.58640 -66.97437 36255 ft 448 kts 235°
2026-04-21 00:56 43.55514 -67.04906 36255 ft 450 kts 240°
2026-04-21 00:57 43.52888 -67.12776 36267 ft 452 kts 244°
2026-04-21 00:57 43.50610 -67.20817 36258 ft 452 kts 245°
2026-04-21 00:58 43.48323 -67.28895 36271 ft 452 kts 245°
2026-04-21 00:58 43.46028 -67.36992 36265 ft 453 kts 245°
2026-04-21 00:59 43.43732 -67.45081 36267 ft 453 kts 245°
2026-04-21 00:59 43.41434 -67.53156 36264 ft 453 kts 245°
2026-04-21 01:00 43.39128 -67.61236 36263 ft 453 kts 245°
2026-04-21 01:00 43.36818 -67.69303 36273 ft 453 kts 245°
2026-04-21 01:01 43.34512 -67.77322 36270 ft 453 kts 245°
2026-04-21 01:01 43.32181 -67.85408 36291 ft 455 kts 245°
2026-04-21 01:02 43.29841 -67.93502 36283 ft 456 kts 245°
2026-04-21 01:02 43.27490 -68.01614 36281 ft 456 kts 245°
2026-04-21 01:03 43.25131 -68.09722 36275 ft 456 kts 245°
2026-04-21 01:03 43.22778 -68.17776 36273 ft 456 kts 245°
2026-04-21 01:04 43.20412 -68.25860 36283 ft 456 kts 245°
2026-04-21 01:04 43.18041 -68.33933 36292 ft 456 kts 245°
2026-04-21 01:05 43.15650 -68.42034 36291 ft 458 kts 245°
2026-04-21 01:05 43.13268 -68.50096 36285 ft 458 kts 245°
2026-04-21 01:06 43.10856 -68.58230 36277 ft 458 kts 245°
2026-04-21 01:06 43.08444 -68.66340 36282 ft 458 kts 245°
2026-04-21 01:07 43.06046 -68.74380 36283 ft 458 kts 245°
2026-04-21 01:07 43.03628 -68.82458 36284 ft 458 kts 245°
2026-04-21 01:08 43.01201 -68.90531 36296 ft 459 kts 246°
2026-04-21 01:08 42.98769 -68.98607 36285 ft 459 kts 245°
2026-04-21 01:09 42.96335 -69.06666 36291 ft 459 kts 245°
2026-04-21 01:09 42.93901 -69.14699 36291 ft 459 kts 245°
2026-04-21 01:10 42.91447 -69.22765 36308 ft 459 kts 245°
2026-04-21 01:10 42.88982 -69.30846 36292 ft 460 kts 245°
2026-04-21 01:11 42.86525 -69.38882 36292 ft 460 kts 245°
2026-04-21 01:11 42.84469 -69.45584 36291 ft 460 kts 245°
2026-04-21 01:12 42.83385 -69.49109 36292 ft 460 kts 245°
2026-04-21 01:12 42.80567 -69.58248 36307 ft 462 kts 246°
2026-04-21 01:13 42.78490 -69.64973 36298 ft 462 kts 246°
2026-04-21 01:13 42.76229 -69.72279 36290 ft 461 kts 245°
2026-04-21 01:14 42.73746 -69.80276 36294 ft 461 kts 245°
2026-04-21 01:14 42.71241 -69.88316 36312 ft 461 kts 246°
2026-04-21 01:15 42.68729 -69.96359 36301 ft 462 kts 246°
2026-04-21 01:15 42.66202 -70.04415 36297 ft 462 kts 245°
2026-04-21 01:16 42.63652 -70.12447 36288 ft 462 kts 245°
2026-04-21 01:16 42.61091 -70.20496 36303 ft 462 kts 245°
2026-04-21 01:17 42.58523 -70.28518 36291 ft 463 kts 246°
2026-04-21 01:17 42.55966 -70.36495 36282 ft 463 kts 246°
2026-04-21 01:18 42.53395 -70.44509 36282 ft 463 kts 245°
2026-04-21 01:18 42.50808 -70.52544 36278 ft 463 kts 245°
2026-04-21 01:19 42.48211 -70.60563 36295 ft 465 kts 246°
2026-04-21 01:19 42.45606 -70.68601 36294 ft 465 kts 246°
2026-04-21 01:20 42.43015 -70.76589 36294 ft 466 kts 246°
2026-04-21 01:20 42.40401 -70.84630 36302 ft 466 kts 246°
2026-04-21 01:21 42.37777 -70.92663 36311 ft 467 kts 246°
2026-04-21 01:21 42.35314 -71.00819 36310 ft 468 kts 250°
2026-04-21 01:22 42.33289 -71.09159 36309 ft 468 kts 251°
2026-04-21 01:22 42.31611 -71.16198 36308 ft 468 kts 251°
2026-04-21 01:23 42.29624 -71.24523 36299 ft 468 kts 251°
2026-04-21 01:23 42.27618 -71.32906 36284 ft 468 kts 251°
2026-04-21 01:24 42.25606 -71.41283 36293 ft 467 kts 251°
2026-04-21 01:24 42.23594 -71.49634 36295 ft 467 kts 251°
2026-04-21 01:25 42.21570 -71.57999 36293 ft 468 kts 252°
2026-04-21 01:25 42.19539 -71.66362 36285 ft 469 kts 252°
2026-04-21 01:26 42.17511 -71.74689 36284 ft 469 kts 251°
2026-04-21 01:26 42.15468 -71.83050 36277 ft 468 kts 251°
2026-04-21 01:27 42.13420 -71.91394 36286 ft 468 kts 251°
2026-04-21 01:27 42.11357 -71.99761 36290 ft 470 kts 252°
2026-04-21 01:28 42.10339 -72.03889 36280 ft 457 kts 252°
2026-04-21 01:28 42.09344 -72.07916 36285 ft 450 kts 252°
2026-04-21 01:28 42.07375 -72.15863 36210 ft 449 kts 252°
2026-04-21 01:29 42.06384 -72.19854 35960 ft 447 kts 252°
2026-04-21 01:29 42.05396 -72.23821 35649 ft 445 kts 252°
2026-04-21 01:29 42.04410 -72.27769 35265 ft 443 kts 252°
2026-04-21 01:29 42.03424 -72.31707 34771 ft 443 kts 252°
2026-04-21 01:30 42.02441 -72.35642 34235 ft 443 kts 252°
2026-04-21 01:30 42.01449 -72.39603 33582 ft 443 kts 252°
2026-04-21 01:30 42.00463 -72.43533 32972 ft 443 kts 252°
2026-04-21 01:30 41.99476 -72.47460 32369 ft 442 kts 252°
2026-04-21 01:31 41.98487 -72.51392 31773 ft 442 kts 252°
2026-04-21 01:31 41.97508 -72.55278 31158 ft 443 kts 252°
2026-04-21 01:31 41.96518 -72.59206 30537 ft 443 kts 253°
2026-04-21 01:31 41.95522 -72.63136 29793 ft 444 kts 253°
2026-04-21 01:32 41.94526 -72.67068 29062 ft 444 kts 253°
2026-04-21 01:32 41.93545 -72.71009 28384 ft 443 kts 254°
2026-04-21 01:32 41.92602 -72.74946 27705 ft 442 kts 254°
2026-04-21 01:32 41.91670 -72.78879 27011 ft 441 kts 254°
2026-04-21 01:33 41.90740 -72.82803 26531 ft 437 kts 254°
2026-04-21 01:33 41.89827 -72.86641 26114 ft 435 kts 254°
2026-04-21 01:33 41.88905 -72.90505 25678 ft 431 kts 254°
2026-04-21 01:33 41.87989 -72.94336 25243 ft 428 kts 254°
2026-04-21 01:34 41.87076 -72.98133 24798 ft 424 kts 254°
2026-04-21 01:34 41.86173 -73.01893 24362 ft 421 kts 254°
2026-04-21 01:34 41.85275 -73.05630 23917 ft 418 kts 254°
2026-04-21 01:34 41.84385 -73.09325 23414 ft 414 kts 254°
2026-04-21 01:35 41.83502 -73.12986 22942 ft 409 kts 254°
2026-04-21 01:35 41.82628 -73.16600 22472 ft 405 kts 254°
2026-04-21 01:35 41.81769 -73.20143 22049 ft 401 kts 254°
2026-04-21 01:35 41.80910 -73.23685 21612 ft 397 kts 254°
2026-04-21 01:36 41.80058 -73.27192 21186 ft 394 kts 254°
2026-04-21 01:36 41.79210 -73.30680 20746 ft 391 kts 254°
2026-04-21 01:36 41.78367 -73.34130 20314 ft 388 kts 254°
2026-04-21 01:36 41.77531 -73.37558 19884 ft 385 kts 254°
2026-04-21 01:37 41.76702 -73.40953 19454 ft 382 kts 254°
2026-04-21 01:37 41.75878 -73.44327 19030 ft 379 kts 254°
2026-04-21 01:37 41.75056 -73.47683 18619 ft 381 kts 254°
2026-04-21 01:37 41.74221 -73.51092 18168 ft 386 kts 254°
2026-04-21 01:38 41.73382 -73.54510 17708 ft 384 kts 254°
2026-04-21 01:38 41.72546 -73.57903 17253 ft 382 kts 254°
2026-04-21 01:38 41.71716 -73.61274 16844 ft 380 kts 253°
2026-04-21 01:38 41.70888 -73.64628 16440 ft 377 kts 253°
2026-04-21 01:39 41.70063 -73.67960 16032 ft 376 kts 254°
2026-04-21 01:39 41.69253 -73.71234 15645 ft 374 kts 254°
2026-04-21 01:39 41.68436 -73.74535 15247 ft 372 kts 253°
2026-04-21 01:39 41.67623 -73.77811 14869 ft 370 kts 253°
2026-04-21 01:40 41.66814 -73.81066 14491 ft 368 kts 253°
2026-04-21 01:40 41.66019 -73.84317 14113 ft 366 kts 254°
2026-04-21 01:40 41.65252 -73.87553 13682 ft 364 kts 254°
2026-04-21 01:40 41.64494 -73.90777 13260 ft 362 kts 254°
2026-04-21 01:41 41.63740 -73.93975 12844 ft 359 kts 254°
2026-04-21 01:41 41.62988 -73.97157 12426 ft 357 kts 254°
2026-04-21 01:41 41.62240 -74.00315 12029 ft 355 kts 254°
2026-04-21 01:41 41.61493 -74.03463 11611 ft 354 kts 254°
2026-04-21 01:42 41.60748 -74.06600 11214 ft 353 kts 254°
2026-04-21 01:42 41.60007 -74.09717 10824 ft 347 kts 254°
2026-04-21 01:42 41.59288 -74.12735 10442 ft 341 kts 254°
2026-04-21 01:42 41.58575 -74.15724 10163 ft 332 kts 254°
2026-04-21 01:43 41.57880 -74.18628 9886 ft 324 kts 254°
2026-04-21 01:43 41.57200 -74.21468 9598 ft 315 kts 254°
2026-04-21 01:43 41.56538 -74.24228 9319 ft 308 kts 254°
2026-04-21 01:43 41.55889 -74.26929 9033 ft 301 kts 255°
2026-04-21 01:44 41.55255 -74.29566 8754 ft 294 kts 255°
2026-04-21 01:44 41.54529 -74.32099 8465 ft 292 kts 241°
2026-04-21 01:44 41.53070 -74.33947 8160 ft 293 kts 210°
2026-04-21 01:44 41.51164 -74.34871 7911 ft 290 kts 200°
2026-04-21 01:45 41.49250 -74.35650 7647 ft 285 kts 200°
2026-04-21 01:45 41.47373 -74.36422 7393 ft 281 kts 201°
2026-04-21 01:45 41.45544 -74.37195 7129 ft 277 kts 202°
2026-04-21 01:45 41.43717 -74.37981 7029 ft 276 kts 202°
2026-04-21 01:46 41.41860 -74.38667 7010 ft 281 kts 189°
2026-04-21 01:46 41.39920 -74.38382 6941 ft 283 kts 162°
2026-04-21 01:46 41.38161 -74.37201 6566 ft 285 kts 150°
2026-04-21 01:46 41.36482 -74.35792 6162 ft 285 kts 148°
2026-04-21 01:47 41.34816 -74.34361 5860 ft 282 kts 147°
2026-04-21 01:47 41.33177 -74.32960 5568 ft 279 kts 147°
2026-04-21 01:47 41.31544 -74.31579 5243 ft 277 kts 147°
2026-04-21 01:47 41.29920 -74.30224 5018 ft 273 kts 147°
2026-04-21 01:48 41.28303 -74.28880 5019 ft 275 kts 147°
2026-04-21 01:48 41.26655 -74.27574 5009 ft 275 kts 153°
2026-04-21 01:48 41.24897 -74.26560 5020 ft 276 kts 158°
2026-04-21 01:48 41.23106 -74.25645 5016 ft 276 kts 159°
2026-04-21 01:49 41.21307 -74.24731 5016 ft 276 kts 159°
2026-04-21 01:49 41.19515 -74.23804 5013 ft 276 kts 158°
2026-04-21 01:49 41.17713 -74.22856 5025 ft 277 kts 158°
2026-04-21 01:49 41.15923 -74.21906 5017 ft 276 kts 158°
2026-04-21 01:50 41.14140 -74.20953 5010 ft 276 kts 158°
2026-04-21 01:50 41.12352 -74.19996 5005 ft 276 kts 158°
2026-04-21 01:50 41.10577 -74.19044 5005 ft 272 kts 158°
2026-04-21 01:50 41.08868 -74.18130 4854 ft 265 kts 158°
2026-04-21 01:51 41.07184 -74.17229 4694 ft 258 kts 157°
2026-04-21 01:51 41.05545 -74.16350 4542 ft 251 kts 157°
2026-04-21 01:51 41.03943 -74.15493 4383 ft 244 kts 157°
2026-04-21 01:51 41.02390 -74.14663 4219 ft 237 kts 157°
2026-04-21 01:52 41.00866 -74.13848 4030 ft 233 kts 157°
2026-04-21 01:52 40.97858 -74.12241 3488 ft 232 kts 157°
2026-04-21 01:52 40.96356 -74.11438 3223 ft 232 kts 157°
2026-04-21 01:53 40.94862 -74.10642 3029 ft 231 kts 157°
2026-04-21 01:53 40.93361 -74.09841 3033 ft 233 kts 157°
2026-04-21 01:53 40.91875 -74.09047 3025 ft 233 kts 157°
2026-04-21 01:53 40.90372 -74.08246 3019 ft 230 kts 157°
2026-04-21 01:54 40.88917 -74.07470 3053 ft 223 kts 157°
2026-04-21 01:54 40.87462 -74.06743 3012 ft 223 kts 165°
2026-04-21 01:54 40.85932 -74.06624 2888 ft 220 kts 189°
2026-04-21 01:54 40.84462 -74.07156 2757 ft 219 kts 201°
2026-04-21 01:55 40.83037 -74.07854 2626 ft 218 kts 204°
2026-04-21 01:55 40.81615 -74.08571 2528 ft 218 kts 203°
2026-04-21 01:55 40.80172 -74.09126 2526 ft 220 kts 190°
2026-04-21 01:55 40.78680 -74.09109 2500 ft 206 kts 171°
2026-04-21 01:56 40.77401 -74.08595 2451 ft 179 kts 153°
2026-04-21 01:56 40.76380 -74.07766 2478 ft 169 kts 137°
2026-04-21 01:56 40.75498 -74.06743 2360 ft 167 kts 134°
2026-04-21 01:56 40.74577 -74.05808 2178 ft 168 kts 150°
2026-04-21 01:57 40.73457 -74.05409 1958 ft 167 kts 182°
2026-04-21 01:57 40.72340 -74.05709 1796 ft 162 kts 210°
2026-04-21 01:57 40.71374 -74.06454 1627 ft 161 kts 216°
2026-04-21 01:57 40.70490 -74.07319 1419 ft 155 kts 231°
2026-04-21 01:58 40.69886 -74.08456 1169 ft 150 kts 252°
2026-04-21 01:58 40.69663 -74.09742 942 ft 144 kts 274°
2026-04-21 01:58 40.69755 -74.11052 725 ft 142 kts 281°
2026-04-21 01:58 40.69887 -74.12346 591 ft 142 kts 279°
2026-04-21 01:59 40.69977 -74.13643 413 ft 142 kts 278°
2026-04-21 01:59 40.70063 -74.14935 207 ft 140 kts 279°
2026-04-21 01:59 40.70153 -74.16212 36 ft 137 kts 278°
2026-04-21 01:59 40.70219 -74.17122 31 ft 27 kts 275°
2026-04-21 02:00 40.70229 -74.17302 31 ft 12 kts 264°
2026-04-21 02:00 40.70159 -74.17355 31 ft 15 kts 187°
2026-04-21 02:00 40.70044 -74.17372 31 ft 18 kts 185°
2026-04-21 02:00 40.69910 -74.17388 30 ft 15 kts 185°
2026-04-21 02:01 40.69828 -74.17323 30 ft 16 kts 131°
2026-04-21 02:01 40.69736 -74.17206 30 ft 20 kts 142°
2026-04-21 02:01 40.69603 -74.17108 30 ft 24 kts 160°
2026-04-21 02:01 40.69432 -74.17067 30 ft 26 kts 180°
2026-04-21 02:02 40.69276 -74.17121 30 ft 20 kts 204°
2026-04-21 02:02 40.69141 -74.17206 30 ft 23 kts 206°
2026-04-21 02:02 40.68999 -74.17297 30 ft 13 kts 206°
2026-04-21 02:02 40.68970 -74.17336 30 ft 6 kts 257°
2026-04-21 02:03 40.68974 -74.17380 30 ft 4 kts 284°
2026-04-21 02:03 40.68984 -74.17426 30 ft 4 kts 287°
2026-04-21 02:03 40.68988 -74.17445 30 ft 2 kts 284°
2026-04-21 02:03 40.68988 -74.17446 30 ft 0 kts 284°
2026-04-21 02:05 40.69625 -74.17119 30 ft 0 kts 157°
2026-04-21 02:05 40.85005 -74.06919 2810 ft 0 kts 199°
2026-04-21 02:06 40.83566 -74.07588 2675 ft 0 kts 203°